星链-35579(STARLINK-35579)

导读 | 豆包AI

STARLINK-35579是由美国发射的SpaceX星链卫星,于2025年11月21日发射入轨,隶属于星链互联网星座项目。星链计划旨在通过大规模低轨卫星组网,为全球用户提供覆盖偏远地区的高速宽带互联网服务。该卫星承担星座通信扩容任务,进一步完善星链系统的全球通信覆盖能力,支撑卫星互联网服务的稳定性与覆盖密度提升。

基本信息
目录编号:
66562
目录名称:
STARLINK-35579
国际标识:
2025-268F
轨道中心:
EARTH
卫星名称:
星链-35579
卫星全名:
星链-35579(STARLINK-35579)
卫星状态:
在轨 (已飞行113 天)
发射日期:
2025-11-21 UTC
国别 :
美国 (US)
星等 :
--
轨道信息
数据来源 国际轨道数据
星历时间: 2026-03-13T09:11:40+0800
1天前
查看轨道信息
半长轴: 6861.09km
偏心率: 0.0001394
轨道倾角: 43.002°
近地点辐角 354.467°
升交点赤经 328.087°
平近点角 5.617°
近地点: 481.996km
远地点: 483.91km
周期: 94.265分钟
每日圈数: 15.276121
详细信息
固有亮度:
5
最大亮度:
2.5
卫星平台:
Starlink V1.0
覆盖范围:
全球
运营商:
太空探索技术公司
运营商所在国:
美国
制造商(研发单位):
太空探索技术公司
制造商所在国:
美国
使用方式:
暂无
卫星简介
Starlink 计划是 SpaceX 推出的全球卫星互联网项目,通过发射低轨道卫星,为全球尤其是偏远地区提供高速、低延迟的互联网服务。自 2019 年起,Starlink 已部署数千颗卫星,旨在缩小全球数字鸿沟,推动互联网普及。该项目还为军事、航空等行业提供通信支持,带来广泛经济效益。
2D轨道图
3D轨道图
轨道高度分析图
轨道倾角分析图
轨道综合分析图
查看轨道综合分析图